CW4610 Weather Reports


Display with metric or nautical units.
time (UTC)temp
F
wind
direction
speed
MPH
gust
MPH
rain 1hr
in
rain 24hr
in
rain mn
in
humidity
%
barometer
mb
20181019003027 60 150 1.0 7.0 0.00 0.01 0.01 72 1021.0
20181019002027 61 187 1.0 7.0 0.00 0.01 0.01 71 1020.9
20181019001028 61 185 3.0 8.0 0.00 0.01 0.01 69 1020.9
20181019000027 62 180 4.0 8.0 0.00 0.01 0.01 68 1020.9
20181018235027 63 186 5.0 10.0 0.00 0.01 0.01 67 1020.9
20181018234019 63 194 4.0 7.0 0.00 0.01 0.01 67 1020.9
20181018233027 63 195 5.0 7.0 0.00 0.01 0.01 65 1020.9
20181018232027 64 194 4.0 6.0 0.00 0.01 0.01 64 1020.9
20181018231028 64 208 2.0 6.0 0.00 0.01 0.01 64 1020.9
20181018230027 64 196 3.0 6.0 0.00 0.01 0.01 64 1020.9
20181018225027 63 204 2.0 7.0 0.00 0.01 0.01 65 1020.9
20181018224027 63 199 4.0 8.0 0.00 0.01 0.01 66 1020.8
20181018223027 64 204 3.0 6.0 0.00 0.01 0.01 65 1020.8
20181018222027 64 210 2.0 6.0 0.00 0.01 0.01 66 1020.9
20181018221027 63 200 0.0 3.0 0.00 0.01 0.01 66 1021.0
20181018220028 63 200 1.0 3.0 0.00 0.01 0.01 69 1021.0
20181018215027 63 200 2.0 4.0 0.00 0.01 0.01 68 1021.0
20181018214028 62 186 0.0 4.0 0.00 0.01 0.01 69 1021.0
20181018213027 61 186 0.0 4.0 0.00 0.01 0.01 69 1021.0
20181018212027 61 155 0.0 4.0 0.00 0.01 0.01 72 1021.0
20181018211027 60 233 0.0 3.0 0.00 0.01 0.01 73 1021.1
20181018210027 61 232 1.0 3.0 0.00 0.01 0.01 73 1021.1
20181018205027 60 232 0.0 3.0 0.00 0.01 0.01 75 1021.1
20181018204027 59 233 0.0 4.0 0.00 0.01 0.01 77 1021.2
20181018203026 59 233 0.0 4.0 0.00 0.01 0.01 78 1021.2
20181018202027 58 0.0 3.0 0.00 0.01 0.01 76 1021.4
20181018201027 57 355 0.0 3.0 0.00 0.01 0.01 79 1021.5
20181018200027 56 0.0 0.0 0.00 0.01 0.01 82 1021.5
20181018195019 55 0.0 0.0 0.00 0.01 0.01 86 1021.8
20181018194026 54 0.0 0.0 0.00 0.01 0.01 90 1021.8
20181018193027 53 0.0 0.0 0.00 0.01 0.01 93 1021.7
20181018192026 53 0.0 3.0 0.00 0.01 0.01 94 1021.9
20181018191026 52 220 0.0 3.0 0.00 0.01 0.01 95 1021.9
20181018190027 51 0.0 0.0 0.00 0.01 0.01 98 1021.9
20181018185027 50 329 0.0 1.0 0.00 0.01 0.01 99 1022.1
20181018184027 48 0.0 0.0 0.00 0.01 0.01 99 1022.1
20181018183026 47 0.0 0.0 0.00 0.01 0.01 99 1022.1
20181018182027 47 0.0 0.0 0.00 0.01 0.01 99 1022.1
20181018181026 46 0.0 0.0 0.00 0.01 0.01 98 1022.0
20181018180026 46 0.0 0.0 0.00 0.01 0.01 99 1022.0
20181018175026 46 0.0 0.0 0.00 0.01 0.01 98 1021.6
20181018174026 46 0.0 0.0 0.00 0.01 0.01 98 1021.9
20181018173027 47 0.0 0.0 0.00 0.01 0.01 99 1021.9
20181018172027 47 0.0 0.0 0.00 0.01 0.01 99 1021.6
20181018171026 46 0.0 0.0 0.00 0.01 0.01 99 1021.5
20181018170027 46 0.0 0.0 0.00 0.01 0.01 98 1021.5
20181018165026 46 0.0 0.0 0.00 0.01 0.01 98 1021.5
20181018164026 46 0.0 0.0 0.00 0.01 0.01 98 1021.5
20181018163026 46 0.0 0.0 0.00 0.01 0.01 99 1021.5
20181018162026 45 0.0 0.0 0.00 0.01 0.01 98 1021.5
20181018161026 45 0.0 0.0 0.00 0.01 0.01 98 1021.5
20181018160026 44 0.0 0.0 0.00 0.01 0.01 98 1021.5
20181018155026 44 0.0 0.0 0.00 0.01 0.01 98 1021.5
20181018154026 44 0.0 0.0 0.00 0.01 0.01 98 1021.3
20181018153019 44 0.0 0.0 0.00 0.01 0.01 98 1021.3
20181018152026 44 0.0 0.0 0.00 0.01 0.01 98 1020.9
20181018151026 44 0.0 0.0 0.00 0.01 0.01 98 1020.9
20181018150026 44 0.0 0.0 0.00 0.01 0.01 98 1020.9
20181018145026 44 0.0 0.0 0.00 0.01 0.01 98 1021.0
20181018144026 44 0.0 0.0 0.00 0.01 0.01 97 1020.9
20181018143026 44 0.0 0.0 0.01 0.01 0.01 98 1020.9
20181018142026 44 0.0 0.0 0.01 0.01 0.01 98 1020.8
20181018141026 44 0.0 0.0 0.01 0.01 0.01 98 1020.8
20181018140026 44 0.0 0.0 0.01 0.01 0.01 98 1020.8
20181018135026 44 0.0 0.0 0.01 0.01 0.01 97 1020.8
20181018134026 44 0.0 0.0 0.01 0.01 0.01 97 1020.9
20181018133026 44 0.0 0.0 0.00 0.00 0.00 97 1020.9
20181018132018 44 0.0 0.0 0.00 0.00 0.00 97 1020.9
20181018131026 44 0.0 0.0 0.00 0.00 0.00 97 1020.6
20181018130026 44 0.0 0.0 0.00 0.00 0.00 97 1020.6
20181018125026 44 0.0 0.0 0.00 0.00 0.00 97 1020.5
20181018124026 44 0.0 0.0 0.00 0.00 0.00 97 1020.5
20181018123026 43 0.0 0.0 0.00 0.00 0.00 97 1020.5
20181018122026 43 0.0 0.0 0.00 0.00 0.00 96 1020.5
20181018121026 44 0.0 0.0 0.00 0.00 0.00 96 1020.0
20181018120026 43 0.0 0.0 0.00 0.00 0.00 96 1020.0
20181018115025 43 0.0 0.0 0.00 0.00 0.00 96 1020.0
20181018114025 43 0.0 0.0 0.00 0.00 0.00 96 1020.0
20181018113025 43 0.0 0.0 0.00 0.00 0.00 96 1020.0
20181018112026 43 0.0 0.0 0.00 0.00 0.00 96 1020.0
20181018111026 43 0.0 0.0 0.00 0.00 0.00 97 1019.8
20181018110017 43 0.0 0.0 0.00 0.00 0.00 97 1019.8
20181018105026 43 0.0 0.0 0.00 0.00 0.00 96 1019.9
20181018104025 43 0.0 0.0 0.00 0.00 0.00 96 1020.3
20181018103026 43 0.0 0.0 0.00 0.00 0.00 96 1020.3
20181018102026 43 0.0 0.0 0.00 0.00 0.00 96 1020.4
20181018101025 43 0.0 0.0 0.00 0.00 0.00 96 1020.3
20181018100025 44 0.0 0.0 0.00 0.00 0.00 96 1020.3
20181018095026 44 0.0 0.0 0.00 0.00 0.00 96 1020.0
20181018094025 44 0.0 0.0 0.00 0.00 0.00 96 1020.0
20181018093025 44 0.0 0.0 0.00 0.00 0.00 96 1020.0
20181018092025 43 0.0 0.0 0.00 0.00 0.00 96 1020.4
20181018091025 43 0.0 0.0 0.00 0.00 0.00 95 1020.0
20181018090025 43 0.0 0.0 0.00 0.00 0.00 95 1020.0
20181018085026 44 0.0 0.0 0.00 0.00 0.00 95 1019.6
20181018084026 44 0.0 0.0 0.00 0.00 0.00 95 1019.7
20181018083025 44 0.0 0.0 0.00 0.00 0.00 95 1019.7
20181018082025 44 0.0 0.0 0.00 0.00 0.00 95 1019.6
20181018081025 44 0.0 0.0 0.00 0.00 0.00 95 1019.4
20181018080025 44 0.0 0.0 0.00 0.00 0.00 95 1019.4
20181018075027 44 0.0 0.0 0.00 0.00 0.00 95 1019.5
20181018074025 44 0.0 0.0 0.00 0.00 0.00 95 1019.8
20181018073025 45 0.0 0.0 0.00 0.00 0.00 94 1019.8
20181018072028 45 0.0 0.0 0.00 0.00 0.00 94 1019.8
20181018071027 45 0.0 0.0 0.00 0.00 0.00 94 1019.6
20181018070027 45 0.0 0.0 0.00 0.00 0.00 94 1019.6
20181018065026 45 0.0 0.0 0.00 0.00 0.00 94 1019.7
20181018064026 46 0.0 0.0 0.00 0.00 0.00 94 1019.4
20181018063026 46 0.0 0.0 0.00 0.00 0.00 94 1019.4
20181018062026 46 0.0 0.0 0.00 0.00 0.00 94 1019.4
20181018061026 46 0.0 0.0 0.00 0.00 0.00 93 1019.3
20181018060026 47 0.0 0.0 0.00 0.00 0.00 94 1019.3
20181018055026 47 0.0 0.0 0.00 0.00 0.00 92 1019.3
20181018054026 47 0.0 0.0 0.00 0.00 0.00 92 1019.2
20181018053026 48 0.0 0.0 0.00 0.00 0.00 91 1019.2
20181018052026 48 0.0 0.0 0.00 0.00 0.00 92 1019.3
20181018051026 48 0.0 0.0 0.00 0.00 0.00 91 1019.3
20181018050026 49 0.0 0.0 0.00 0.00 0.00 92 1019.3
20181018045018 49 0.0 0.0 0.00 0.00 0.00 92 1019.0
20181018044026 49 0.0 0.0 0.00 0.00 0.00 91 1019.3
20181018043026 50 0.0 0.0 0.00 0.00 0.00 90 1019.3
20181018042026 50 0.0 0.0 0.00 0.00 0.00 90 1019.3
20181018041026 51 0.0 0.0 0.00 0.00 0.00 89 1019.3
20181018040026 51 0.0 0.0 0.00 0.00 0.00 89 1019.3
20181018035026 52 0.0 0.0 0.00 0.00 0.00 89 1019.3
20181018034026 52 0.0 0.0 0.00 0.00 0.00 88 1019.1
20181018033026 52 0.0 0.0 0.00 0.00 0.00 89 1019.1
20181018032026 52 0.0 0.0 0.00 0.00 0.00 88 1018.9
20181018031026 53 0.0 0.0 0.00 0.00 0.00 87 1018.7
20181018030026 53 0.0 0.0 0.00 0.00 0.00 87 1018.7
20181018025026 54 0.0 0.0 0.00 0.00 0.00 86 1018.8
20181018024025 54 0.0 0.0 0.00 0.00 0.00 86 1018.6
20181018023026 55 0.0 0.0 0.00 0.00 0.00 85 1018.7
20181018022025 56 0.0 0.0 0.00 0.00 0.00 85 1018.3
20181018021025 56 0.0 0.0 0.00 0.00 0.00 85 1018.3
20181018020025 57 0.0 0.0 0.00 0.00 0.00 84 1018.3
20181018015026 57 0.0 0.0 0.00 0.00 0.00 82 1018.3
20181018014017 58 0.0 0.0 0.00 0.00 0.00 80 1018.1
20181018013025 59 0.0 0.0 0.00 0.00 0.00 78 1018.1
20181018012026 60 0.0 0.0 0.00 0.00 0.00 75 1018.0
20181018011025 61 0.0 0.0 0.00 0.00 0.00 73 1017.9
20181018010025 62 0.0 0.0 0.00 0.00 0.00 69 1017.9
20181018005025 64 0.0 0.0 0.00 0.00 0.00 65 1018.2
20181018004025 64 0.0 0.0 0.00 0.00 0.00 63 1018.2